User: anonymous
Location: Bandys
(35.4750°N, 81.0830°W)
Time: 14:55:54
(UTC-04:00)
Language:

DELTA 2 R/B (1) - Orbit

View from above orbital plane
View from above orbital plane
View from above satellite
View from above satellite

Ground track
Ground track

The orbit data is extracted from the following two-line orbital elements,

1 27665U 03005C   14235.44515024 -.00000097  00000-0 -46454-5 0   946
2 27665 039.5756 307.7713 0008209 061.9414 006.4085 14.28210314603801
Epoch (UTC): 23 August 2014 10:41:00
Eccentricity: 0.0008209
inclination: 39.5756°
perigee height: 792 km
apogee height: 803 km
right ascension of ascending node: 307.7713°
argument of perigee: 61.9414°
revolutions per day: 14.28210314
mean anomaly at epoch: 6.4085°
orbit number at epoch: 60380

The dashed part of the orbit path shows where the satellite is in the earth's shadow,  

DLR